STARLINK-11740 [DTC]

Last updated on Thu Jul 03 2025 00:02:06 GMT+0000 (Coordinated Universal Time)

1 64382U 25127N 25183.35761462 .00154361 00000+0 63333-3 0 9993 2 64382 43.0022 155.9707 0001672 290.9819 69.0875 15.84801352 4101
UTC large
Height (km)
Speed (km/s)
/
Latitude / Longitude
Inclination (degrees)
Orbital Period (minutes)
Azimuth
Elevation
Range (km)
Doppler Factor

Next 0 passes for location: London (51.5072 / 0.1276)

Sorry there are no passes over London.